Regional Weather Roundup
Issued by NWS

Home | Current Version | Previous Version | Text Only | Print | Product List | Glossary Off
Versions: 1 2 3 4 5 6 7 8 9 10 11 12 13 14 15 16 17 18 19 20 21 22 23 24 25 26 27 28 29 30 31 32 33 34 35 36 37 38 39 40 41 42 43 44 45 46 47 48 49 50

000
ASUS43 KFSD 281010
RWRSD

WEATHER ROUNDUP FOR SOUTH DAKOTA
NATIONAL WEATHER SERVICE SIOUX FALLS SD
500 AM CDT TUE JUL 28 2015

NOTE: "FAIR" INDICATES FEW OR NO CLOUDS BELOW 12,000 FEET WITH NO
SIGNIFICANT WEATHER AND/OR OBSTRUCTIONS TO VISIBILITY.


SDZ001>005-009-010-012>017-281100-
NORTHWEST AND NORTH CENTRAL SOUTH DAKOTA

CITY           SKY/WX    TMP DP  RH WIND       PRES   REMARKS
BUFFALO          N/A     55  47  74 W25       29.81R
FAITH            N/A     57  50  77 W16G26    29.83R
MOBRIDGE       CLOUDY    66  62  87 W14       29.71R
$$

SDZ012>016-024>037-041>051-057-063-072>074-281100-
SOUTHWEST AND SOUTH CENTRAL SOUTH DAKOTA

CITY           SKY/WX    TMP DP  RH WIND       PRES   REMARKS
RAPID CTY ARPT CLEAR     55  46  71 NW9       29.90R
PIERRE         CLOUDY    65  59  81 NW22      29.75R
CUSTER         CLEAR     50  38  63 W8        30.00S
ELLSWORTH AFB  CLEAR     55  48  75 NW13      29.90R
PHILIP         PTCLDY    60  53  77 NW18G26   29.83R
PINE RIDGE     CLEAR     57  51  80 W6        29.94R
SPEARFISH      FAIR      54  45  71 W10G16    29.97R
WINNER         FAIR      64  59  83 W22G30    29.78R
$$

SDZ004>011-016>023-039-040-281100-
NORTHEAST SOUTH DAKOTA

CITY           SKY/WX    TMP DP  RH WIND       PRES   REMARKS
ABERDEEN       CLOUDY    69  65  86 SW12      29.67R
WATERTOWN      LGT RAIN  68  64  87 NE15      29.63F
BROOKINGS      CLOUDY    70  64  83 SE10      29.77F
SISSETON         N/A     67  67 100 E10       29.59F
$$

SDZ017-020-022-023-036>040-048>070-281100-
SOUTHEAST SOUTH DAKOTA

CITY           SKY/WX    TMP DP  RH WIND       PRES   REMARKS
SIOUX FALLS    TSTM      72  69  90 E14       29.76F
HURON          CLOUDY    68  67  96 SE6       29.68S
CHAMBERLAIN    CLOUDY    67  67  98 W7        29.73S
MITCHELL       CLOUDY    70  68  93 CALM      29.72R
YANKTON        CLOUDY    86  66  51 MISG      29.70F
$$

ABBREVIATIONS USED IN REMARKS
   TC - TEMPERATURE IN CELSIUS
  WCI - WIND CHILL INDEX
   HX - HEAT INDEX
  VSB - VISIBILITY



USA.gov is the U.S. government's official web portal to all federal, state and local government web resources and services.